TimeAKDT,TemperatureF,Dew PointF,Humidity,Sea Level PressureIn,VisibilityMPH,Wind Direction,Wind SpeedMPH,Gust SpeedMPH,PrecipitationIn,Events,Conditions,WindDirDegrees,DateUTC
12:16 AM,6.8,-4.0,61,29.82,10.0,Calm,Calm,-,N/A,,Clear,0,2013-03-16 08:16:00
12:36 AM,5.0,-5.8,61,29.83,10.0,Calm,Calm,-,N/A,,Clear,0,2013-03-16 08:36:00
12:56 AM,3.2,-5.8,66,29.84,10.0,Calm,Calm,-,N/A,,Clear,0,2013-03-16 08:56:00
1:16 AM,3.2,-5.8,66,29.84,10.0,Calm,Calm,-,N/A,,Clear,0,2013-03-16 09:16:00
1:36 AM,1.4,-7.6,66,29.85,10.0,Calm,Calm,-,N/A,,Clear,0,2013-03-16 09:36:00
1:56 AM,1.4,-7.6,66,29.85,10.0,ENE,3.5,-,N/A,,Clear,70,2013-03-16 09:56:00
2:16 AM,1.4,-5.8,72,29.86,10.0,ENE,3.5,-,N/A,,Clear,60,2013-03-16 10:16:00
2:36 AM,1.4,-5.8,72,29.86,10.0,NE,4.6,-,N/A,,Clear,50,2013-03-16 10:36:00
2:56 AM,1.4,-7.6,66,29.87,10.0,ENE,3.5,-,N/A,,Clear,60,2013-03-16 10:56:00
3:16 AM,-0.4,-7.6,72,29.87,10.0,NE,4.6,-,N/A,,Clear,40,2013-03-16 11:16:00
3:36 AM,1.4,-5.8,72,29.88,10.0,Calm,Calm,-,N/A,,Clear,0,2013-03-16 11:36:00
3:56 AM,-0.4,-7.6,72,29.88,10.0,ENE,3.5,-,N/A,,Clear,60,2013-03-16 11:56:00
4:16 AM,-0.4,-5.8,78,29.89,10.0,ENE,3.5,-,N/A,,Clear,60,2013-03-16 12:16:00
4:36 AM,-0.4,-5.8,78,29.89,10.0,ENE,4.6,-,N/A,,Clear,70,2013-03-16 12:36:00
4:56 AM,-2.2,-7.6,78,29.90,10.0,ENE,4.6,-,N/A,,Clear,60,2013-03-16 12:56:00
5:16 AM,-0.4,-2.2,92,29.90,10.0,ENE,3.5,-,N/A,,Clear,70,2013-03-16 13:16:00
5:36 AM,-2.2,-9.4,71,29.90,10.0,ENE,4.6,-,N/A,,Clear,70,2013-03-16 13:36:00
5:56 AM,-0.4,-2.2,92,29.91,10.0,ENE,4.6,-,N/A,,Clear,70,2013-03-16 13:56:00
6:16 AM,-2.2,-9999,N/A,29.91,10.0,ENE,4.6,-,N/A,,Clear,60,2013-03-16 14:16:00
6:36 AM,-2.2,-7.6,78,29.92,10.0,NE,3.5,-,N/A,,Clear,40,2013-03-16 14:36:00
6:56 AM,-2.2,-7.6,78,29.93,10.0,East,3.5,-,N/A,,Clear,80,2013-03-16 14:56:00
7:16 AM,-4.0,-7.6,85,29.93,10.0,East,6.9,-,N/A,,Clear,90,2013-03-16 15:16:00
7:36 AM,-2.2,-4.0,92,29.94,10.0,Calm,Calm,-,N/A,,Clear,0,2013-03-16 15:36:00
7:56 AM,-2.2,-11.2,66,29.95,10.0,Calm,Calm,-,N/A,,Clear,0,2013-03-16 15:56:00
8:16 AM,-4.0,-7.6,85,29.95,10.0,NE,6.9,-,N/A,,Clear,50,2013-03-16 16:16:00
8:36 AM,-5.8,-9999,N/A,29.96,10.0,Calm,Calm,-,N/A,,Clear,0,2013-03-16 16:36:00
8:56 AM,-5.8,-11.2,77,29.97,10.0,Calm,Calm,-,N/A,,Clear,0,2013-03-16 16:56:00
9:16 AM,-2.2,-7.6,78,29.97,10.0,ENE,4.6,-,N/A,,Clear,70,2013-03-16 17:16:00
9:36 AM,-2.2,-7.6,78,29.98,10.0,Calm,Calm,-,N/A,,Clear,0,2013-03-16 17:36:00
9:56 AM,-0.4,-5.8,78,29.98,10.0,Calm,Calm,-,N/A,,Clear,0,2013-03-16 17:56:00
10:16 AM,1.4,-2.2,85,29.98,10.0,Calm,Calm,-,N/A,,Clear,0,2013-03-16 18:16:00
10:36 AM,5.0,-2.2,72,29.98,10.0,Calm,Calm,-,N/A,,Clear,0,2013-03-16 18:36:00
10:56 AM,8.6,-0.4,67,29.99,10.0,Calm,Calm,-,N/A,,Clear,0,2013-03-16 18:56:00
11:16 AM,14.0,3.2,62,29.99,10.0,Calm,Calm,-,N/A,,Clear,0,2013-03-16 19:16:00
11:36 AM,17.6,3.2,53,29.99,10.0,East,5.8,-,N/A,,Clear,100,2013-03-16 19:36:00
11:56 AM,19.4,5.0,54,29.99,10.0,ESE,3.5,-,N/A,,Clear,120,2013-03-16 19:56:00
12:16 PM,19.4,5.0,54,29.99,10.0,East,8.1,-,N/A,,Clear,100,2013-03-16 20:16:00
12:36 PM,21.2,5.0,50,30.00,10.0,East,4.6,-,N/A,,Clear,80,2013-03-16 20:36:00
12:56 PM,23.0,3.2,43,30.01,10.0,Calm,Calm,-,N/A,,Clear,0,2013-03-16 20:56:00
1:16 PM,24.8,5.0,43,30.01,10.0,NE,5.8,-,N/A,,Clear,40,2013-03-16 21:16:00
1:36 PM,24.8,3.2,40,30.01,10.0,NNE,6.9,-,N/A,,Clear,30,2013-03-16 21:36:00
1:56 PM,26.6,3.2,37,30.01,10.0,NNE,5.8,-,N/A,,Clear,30,2013-03-16 21:56:00
2:16 PM,26.6,3.2,37,30.01,10.0,NE,6.9,-,N/A,,Clear,40,2013-03-16 22:16:00
2:36 PM,26.6,5.0,40,30.01,10.0,NE,5.8,-,N/A,,Partly Cloudy,40,2013-03-16 22:36:00
2:56 PM,28.4,3.2,34,30.01,10.0,NE,3.5,-,N/A,,Partly Cloudy,50,2013-03-16 22:56:00
3:16 PM,28.4,5.0,37,30.01,10.0,North,4.6,-,N/A,,Mostly Cloudy,360,2013-03-16 23:16:00
3:36 PM,28.4,3.2,34,30.01,10.0,North,4.6,-,N/A,,Mostly Cloudy,350,2013-03-16 23:36:00
3:56 PM,30.2,3.2,32,30.01,10.0,Calm,Calm,-,N/A,,Mostly Cloudy,0,2013-03-16 23:56:00
4:16 PM,30.2,3.2,32,30.01,10.0,North,3.5,-,N/A,,Partly Cloudy,10,2013-03-17 00:16:00
4:36 PM,30.2,3.2,32,30.01,10.0,NNE,3.5,-,N/A,,Clear,20,2013-03-17 00:36:00
4:56 PM,30.2,3.2,32,30.01,10.0,NNW,4.6,-,N/A,,Clear,330,2013-03-17 00:56:00
5:16 PM,30.2,3.2,32,30.02,10.0,NNW,6.9,-,N/A,,Clear,340,2013-03-17 01:16:00
5:36 PM,30.2,3.2,32,30.02,10.0,NNE,4.6,-,N/A,,Clear,30,2013-03-17 01:36:00
5:56 PM,30.2,3.2,32,30.02,10.0,North,4.6,-,N/A,,Clear,360,2013-03-17 01:56:00
6:16 PM,30.2,3.2,32,30.03,10.0,North,3.5,-,N/A,,Clear,10,2013-03-17 02:16:00
6:36 PM,30.2,3.2,32,30.03,10.0,North,4.6,-,N/A,,Clear,10,2013-03-17 02:36:00
6:56 PM,30.2,3.2,32,30.04,10.0,North,3.5,-,N/A,,Clear,360,2013-03-17 02:56:00
7:16 PM,28.4,3.2,34,30.04,10.0,NNE,4.6,-,N/A,,Clear,20,2013-03-17 03:16:00
7:36 PM,28.4,1.4,31,30.04,10.0,Calm,Calm,-,N/A,,Clear,0,2013-03-17 03:36:00
7:56 PM,26.6,1.4,34,30.04,10.0,Calm,Calm,-,N/A,,Partly Cloudy,0,2013-03-17 03:56:00
8:16 PM,26.6,-0.4,31,30.05,10.0,Calm,Calm,-,N/A,,Mostly Cloudy,0,2013-03-17 04:16:00
8:36 PM,24.8,-0.4,34,30.06,10.0,Calm,Calm,-,N/A,,Scattered Clouds,0,2013-03-17 04:36:00
8:56 PM,21.2,-0.4,39,30.06,10.0,Calm,Calm,-,N/A,,Clear,0,2013-03-17 04:56:00
9:16 PM,17.6,1.4,49,30.06,10.0,Calm,Calm,-,N/A,,Clear,0,2013-03-17 05:16:00
9:36 PM,15.8,3.2,58,30.07,10.0,Calm,Calm,-,N/A,,Partly Cloudy,0,2013-03-17 05:36:00
9:56 PM,15.8,1.4,53,30.07,10.0,Calm,Calm,-,N/A,,Partly Cloudy,0,2013-03-17 05:56:00
10:16 PM,14.0,-0.4,53,30.07,10.0,Calm,Calm,-,N/A,,Clear,0,2013-03-17 06:16:00
10:36 PM,15.8,1.4,53,30.08,10.0,Calm,Calm,-,N/A,,Clear,0,2013-03-17 06:36:00
10:56 PM,10.4,1.4,67,30.08,10.0,Calm,Calm,-,N/A,,Clear,0,2013-03-17 06:56:00
11:16 PM,10.4,-0.4,62,30.09,10.0,Calm,Calm,-,N/A,,Clear,0,2013-03-17 07:16:00
11:36 PM,8.6,-2.2,62,30.09,10.0,Calm,Calm,-,N/A,,Clear,0,2013-03-17 07:36:00
11:56 PM,8.6,-2.2,62,30.10,10.0,Calm,Calm,-,N/A,,Clear,0,2013-03-17 07:56:00